"Pseudo-MPEC" for P10NS8Z

Created 2019 May 18 15:07:19 UT using Find_Orb

Click here for an explanation of pseudo-MPECs

 
 Astrometry: 
     P10NS8Z  C2019 05 11WK%G'gu8%)vO%[Astrometry=YixU(S0T'(\/KGyPXKURvUjV^@+F51
     P10NS8Z  C2019 05 11!wk,MS='4ECJ?C!QHredacted;01-gDc%HC@JteJclick'lWxNlCF51
     P10NS8Z  C2019 05 11F5me2HpZhereYfor(ZfoX)NwexplanationQrqUl6%M\\K0NHVpuF51

Station data:
(F51) Pan-STARRS 1, Haleakala  (N20.707235 W156.255910)  US/Hawaii.
   Observers N. Primak, A. Schultz, S. Watters, J. Thiel, T. Goggia. Measurer
   PS1 Science Consortium. 1.8-m Ritchey-Chrétien + CCD.

Orbital elements:  P10NS8Z
   Perihelion 2019 May 13.275118 +/- 39.6 TT =  6:36:10 (JD 2458616.775118)
Epoch 2019 May 11.0 TT = JDT 2458614.5   Earth MOID: 0.2116   Ju: 0.2309
M 359.56928320 +/- 18               Ma: 0.0225                AutoNEOCP
n   0.18931624 +/- 0.232            Peri.  134.60825 +/- 100
a   3.00384455 +/- 2.45             Node    98.45551 +/- 60
e   0.5942276 +/- 0.252             Incl.    2.87908 +/- 2.7
P   5.21                   H 24.4   G  0.15   U 11.8  SR
q 1.21887719 +/- 0.223    Q 4.78881192 +/- 48.8
From 3 observations 2019 May 11 (62.6 min); mean residual 0".03
Residuals in arcseconds: 
190511 F51  .01-  .02+    190511 F51  .04+  .05-    190511 F51  .03-  .04+    

Ephemerides (geocentric):
Date (UTC) HH   RA              Dec         delta   r     elong  mag " sig PA
---- -- -- --  -------------   -----------  ------ ------ -----  --- ---- ---
2019 05 18 15  16 09 59.999   -10 05 29.69  .21294 1.2206 168.0 22.1  60d 176
2019 05 18 16  16 10 06.625   -10 06 20.76  .21295 1.2206 168.0 22.1  60d 176
2019 05 18 17  16 10 13.249   -10 07 11.86  .21296 1.2206 168.0 22.1  60d 176
2019 05 18 18  16 10 19.871   -10 08 02.98  .21297 1.2206 168.1 22.1  60d 176
2019 05 18 19  16 10 26.491   -10 08 54.12  .21298 1.2207 168.1 22.1  60d 176
2019 05 18 20  16 10 33.109   -10 09 45.28  .21299 1.2207 168.1 22.1  60d 176
2019 05 18 21  16 10 39.726   -10 10 36.46  .21300 1.2207 168.1 22.1  60d 176
2019 05 18 22  16 10 46.340   -10 11 27.67  .21301 1.2208 168.1 22.1  61d 176
2019 05 18 23  16 10 52.953   -10 12 18.89  .21302 1.2208 168.1 22.1  61d 176
2019 05 19 00  16 10 59.564   -10 13 10.13  .21304 1.2208 168.1 22.1  61d 176
2019 05 19 01  16 11 06.173   -10 14 01.39  .21305 1.2208 168.1 22.1  61d 176
2019 05 19 02  16 11 12.780   -10 14 52.68  .21306 1.2209 168.2 22.1  61d 176
2019 05 19 03  16 11 19.385   -10 15 43.98  .21307 1.2209 168.2 22.1  61d 176
2019 05 19 04  16 11 25.989   -10 16 35.30  .21308 1.2209 168.2 22.1  61d 176
2019 05 19 05  16 11 32.590   -10 17 26.64  .21310 1.2210 168.2 22.1  61d 176
2019 05 19 06  16 11 39.189   -10 18 18.01  .21311 1.2210 168.2 22.1  61d 176
2019 05 19 07  16 11 45.787   -10 19 09.39  .21312 1.2210 168.2 22.1  61d 176
2019 05 19 08  16 11 52.383   -10 20 00.79  .21314 1.2210 168.2 22.1  61d 176
2019 05 19 09  16 11 58.976   -10 20 52.21  .21315 1.2211 168.3 22.1  61d 176
2019 05 19 10  16 12 05.568   -10 21 43.64  .21316 1.2211 168.3 22.1  61d 176
2019 05 19 11  16 12 12.157   -10 22 35.10  .21318 1.2211 168.3 22.1  61d 176
2019 05 19 12  16 12 18.745   -10 23 26.58  .21319 1.2212 168.3 22.1  61d 176
2019 05 19 13  16 12 25.331   -10 24 18.07  .21321 1.2212 168.3 22.1  62d 176
2019 05 19 14  16 12 31.914   -10 25 09.58  .21322 1.2212 168.3 22.1  62d 176
2019 05 19 15  16 12 38.496   -10 26 01.11  .21324 1.2213 168.3 22.1  62d 176
2019 05 19 16  16 12 45.076   -10 26 52.66  .21325 1.2213 168.3 22.1  62d 176
2019 05 19 17  16 12 51.653   -10 27 44.23  .21327 1.2213 168.4 22.1  62d 176
2019 05 19 18  16 12 58.229   -10 28 35.81  .21328 1.2214 168.4 22.1  62d 176
2019 05 19 19  16 13 04.802   -10 29 27.41  .21330 1.2214 168.4 22.1  62d 176
2019 05 19 20  16 13 11.373   -10 30 19.03  .21331 1.2214 168.4 22.1  62d 176
2019 05 19 21  16 13 17.942   -10 31 10.67  .21333 1.2214 168.4 22.1  62d 176
2019 05 19 22  16 13 24.510   -10 32 02.32  .21335 1.2215 168.4 22.1  62d 176
2019 05 19 23  16 13 31.075   -10 32 54.00  .21336 1.2215 168.4 22.1  62d 176
2019 05 20 00  16 13 37.638   -10 33 45.68  .21338 1.2215 168.4 22.1  62d 176
2019 05 20 01  16 13 44.198   -10 34 37.39  .21340 1.2216 168.5 22.1  62d 176
2019 05 20 02  16 13 50.757   -10 35 29.11  .21341 1.2216 168.5 22.1  63d 176
2019 05 20 03  16 13 57.314   -10 36 20.85  .21343 1.2216 168.5 22.1  63d 176
2019 05 20 04  16 14 03.868   -10 37 12.61  .21345 1.2217 168.5 22.1  63d 176
2019 05 20 05  16 14 10.420   -10 38 04.38  .21347 1.2217 168.5 22.1  63d 176
2019 05 20 06  16 14 16.970   -10 38 56.16  .21349 1.2217 168.5 22.1  63d 176
2019 05 20 07  16 14 23.518   -10 39 47.97  .21350 1.2218 168.5 22.1  63d 176
2019 05 20 08  16 14 30.064   -10 40 39.79  .21352 1.2218 168.5 22.1  63d 176
2019 05 20 09  16 14 36.607   -10 41 31.62  .21354 1.2219 168.6 22.1  63d 176
2019 05 20 10  16 14 43.149   -10 42 23.48  .21356 1.2219 168.6 22.1  63d 176
2019 05 20 11  16 14 49.688   -10 43 15.34  .21358 1.2219 168.6 22.1  63d 176
2019 05 20 12  16 14 56.224   -10 44 07.22  .21360 1.2220 168.6 22.1  63d 176
2019 05 20 13  16 15 02.759   -10 44 59.12  .21362 1.2220 168.6 22.1  64d 176
2019 05 20 14  16 15 09.291   -10 45 51.03  .21364 1.2220 168.6 22.1  64d 176